Regional Weather Roundup
Issued by NWS

Home | Current Version | Previous Version | Graphics & Text | Print | Product List | Glossary On
Versions: 1 2 3 4 5 6 7 8 9 10 11 12 13 14 15 16 17 18 19 20 21 22 23 24 25 26 27 28 29 30 31 32 33 34 35 36 37 38 39 40 41 42 43 44 45 46 47 48 49 50
436
ASUS43 KMPX 211001
RWRMN
WEATHER ROUNDUP FOR MINNESOTA
NATIONAL WEATHER SERVICE TWIN CITIES/CHANHASSEN MN
500 AM CDT MON AUG 21 2017


NOTE: "FAIR" INDICATES FEW OR NO CLOUDS BELOW 12,000 FEET WITH NO
SIGNIFICANT WEATHER AND/OR OBSTRUCTIONS TO VISIBILITY. N/A MEANS
CURRENT SKY AND/OR WEATHER CONDITIONS ARE NOT AVAILABLE.

MNZ060>063-068>070-211100-
   Twin Cities Metro

CITY           SKY/WX    TMP DP  RH WIND       PRES   REMARKS
TWIN CITIES    CLOUDY    67  56  67 E7        30.03S
ST PAUL        CLOUDY    65  58  78 CALM      30.03F
CRYSTAL        CLOUDY    64  59  83 E3        30.01F
BLAINE         CLOUDY    63  63 100 E3        30.02F
LAKEVILLE      CLOUDY    64  64 100 SE3       30.03S
EDEN PRAIRIE   CLOUDY    66  59  78 E5        30.02R
SOUTH ST PAUL  CLOUDY    67  57  71 E5        30.03S
LAKE ELMO      FAIR      63  59  88 NE5       30.04F
$$
MNZ001>005-007-008-013>017-022>024-027-028-211100-
   Northwest Minnesota

CITY           SKY/WX    TMP DP  RH WIND       PRES   REMARKS
BEMIDJI        CLEAR     45  43  93 CALM      30.03R
HALLOCK        CLOUDY    52  48  87 S6        29.98S
ROSEAU           N/A     50  45  81 S3        29.99F
WARROAD        PTCLDY    52  48  87 CALM      30.00S
CROOKSTON      PTCLDY    55  48  76 SE5       30.00S
FOSSTON        MOCLDY    48  45  87 CALM      30.02S
DETROIT LAKES  PTCLDY    55  55 100 SE5       30.03S
MOORHEAD       CLOUDY    57  55  94 CALM      30.02R
PARK RAPIDS    CLOUDY    54  51  90 W5        30.04R
MAHNOMEN       PTSUNNY   55  53  91 SE5       30.02R
$$
MNZ006-009>011-018-025>026-211100-
   North Central Minnesota

CITY           SKY/WX    TMP DP  RH WIND       PRES   REMARKS
BAUDETTE       CLOUDY    47  46  97 CALM      29.99F
FLAG ISLAND    CLOUDY    64  45  48 W3        29.96S HAZE
INTL FALLS     MOCLDY    43  41  93 CALM      30.00F
WASKISH        PTCLDY    46  45  93 CALM      30.01S
BIG FORK       PTCLDY    43  43 100 CALM      30.03R
LONGVILLE      CLOUDY    52  52 100 CALM      30.02S
GRAND RAPIDS   FOG       51  50  96 CALM      30.05R VSB 1/2
CRANE LAKE     MOCLDY    43  43 100 CALM      30.03S
ORR            PTCLDY    45  43  93 CALM      30.00S
COOK           PTCLDY    46  46 100 CALM      30.03S
WALKER         FAIR      47  47  98 W3        30.03R
$$
MNZ012-019>021-037-211100-
   Northeast Minnesota

CITY           SKY/WX    TMP DP  RH WIND       PRES   REMARKS
DULUTH         CLEAR     51  51 100 CALM      30.04S
ELY            PTCLDY    46  46 100 CALM      30.04R
HIBBING        CLEAR     43  43 100 CALM      30.03R FOG
EVELETH        CLEAR     44  42  91 CALM      30.04S
DULUTH HARBOR  CLEAR     57  55  94 S6        30.04R
TWO HARBORS    CLEAR     57  52  82 CALM      30.02R
GRAND MARAIS     N/A     61  53  75 CALM      30.00S
G MARAIS ARPRT CLEAR     52  45  76 CALM      30.05R
$$
MNZ029>031-032-039>041-046>048-054>057-064-211100-
   West Central Minnesota

CITY           SKY/WX    TMP DP  RH WIND       PRES   REMARKS
FERGUS FALLS   CLOUDY    57  55  94 CALM      30.03R
WHEATON        CLEAR     52  50  93 CALM      30.05S
MORRIS         MOCLDY    55  55 100 SE5       30.02S
ALEXANDRIA     CLOUDY    59  54  83 SE3       30.06R
ELBOW LAKE     FAIR      56  55  99 CALM      30.04R
WADENA         CLOUDY    54  54 100 CALM      30.04R
GLENWOOD       CLOUDY    57  55  94 E3        30.06R
APPLETON       CLEAR     55  54  94 E5        30.02S
BENSON         CLOUDY    57  55  94 CALM      30.05R
ORTONVILLE     CLEAR     55  52  88 MISG      30.03R
MADISON        PTCLDY    57  57 100 CALM      30.03S
WILLMAR        MOCLDY    63  57  82 E6        30.04F
$$
MNZ033>034-036-042>043-049>051-058-059-211100-
   Central Minnesota

CITY           SKY/WX    TMP DP  RH WIND       PRES   REMARKS
ST CLOUD       CLOUDY    56  56 100 CALM      30.04S
SAUK CENTRE    PTSUNNY   57  55  95 CALM      30.06R
PAYNESVILLE    CLOUDY    57  56  97 CALM      30.05F
AITKIN         CLOUDY    52  50  93 CALM      30.04R
PINE RIVER     PTCLDY    52  52 100 CALM      30.07R
BRAINERD       CLOUDY    56  54  93 CALM      30.06R
STAPLES        PTCLDY    54  54 100 CALM      30.05R
LONG PRAIRIE   CLOUDY    55  54  94 SE3       30.06R
LITTLE FALLS   CLOUDY    54  52  94 CALM      30.06R
LITCHFIELD     CLOUDY    63  61  94 NE3       30.04F
BUFFALO        CLOUDY    62  59  91 CALM      30.04F
MAPLE LAKE     MOCLDY    61  60  97 CALM      30.04F
HUTCHINSON     CLOUDY    64  61  91 NE5       30.03F
$$
MNZ037-044-045-052-053-211100-
   East Central Minnesota

CITY           SKY/WX    TMP DP  RH WIND       PRES   REMARKS
PRINCETON      CLOUDY    57  55  94 CALM      30.05F
MORA           CLOUDY    55  55 100 CALM      30.07S
CAMBRIDGE      CLOUDY    61  59  94 CALM      30.05F
RUSH CITY      CLOUDY    56  56  97 CALM      30.06S
MOOSE LAKE     PTCLDY    50  48  93 CALM      30.04R
HINCKLEY       FAIR      54  54 100 CALM      30.06S
CLOQUET        CLOUDY    52  48  87 CALM      30.05R
MCGREGOR       CLOUDY    50  50 100 CALM      30.05R
$$
MNZ071>073-080-081-089-090-097-098-211100-
   Southwest Minnesota

CITY           SKY/WX    TMP DP  RH WIND       PRES   REMARKS
MONTEVIDEO     CLOUDY    57  57 100 CALM      30.03F
GRANITE FALLS  CLOUDY    63  61  94 NE5       30.03F
CANBY          CLOUDY    59  57  95 CALM      30.04F
MARSHALL       CLOUDY    61  59  93 CALM      30.02F
REDWOOD FALLS  MOCLDY    63  59  87 N3        30.01F
OLIVIA         CLOUDY    59  55  88 N5        30.02S
PIPESTONE      CLOUDY    66  61  82 E7        30.01S
WINDOM         CLOUDY    66  64  94 E7        30.02S
WORTHINGTON    CLOUDY    64  64 100 E7        30.02S
JACKSON        CLOUDY    66  66 100 CALM      30.03R FOG
TRACY          CLOUDY    63  63  99 CALM      30.02S
SLAYTON        CLOUDY    64  59  82 NE3       30.02F
$$
MNZ065>067-074>077-082>085-091>093-211100-
   South Central Minnesota

CITY           SKY/WX    TMP DP  RH WIND       PRES   REMARKS
MANKATO        TSTM      66  62  87 NE13      30.04R FOG
NEW ULM        MOCLDY    66  63  88 E7        30.01F
ST JAMES       CLOUDY    66  64  94 E3        30.03R
FAIRMONT       CLOUDY    69  67  93 SE7       30.04R
GLENCOE        PTCLDY    64  63  99 CALM      30.02S
FARIBAULT      CLOUDY    66  64  94 E3        30.04F
OWATONNA       CLOUDY    68  64  88 E6        30.04F
WASECA         CLOUDY    68  64  88 E6        30.04S THUNDER
ALBERT LEA     CLOUDY    73  68  83 S8G21     30.03F
$$
MNZ078>079-086>088-094>096-211100-
   Southeast Minnesota

CITY           SKY/WX    TMP DP  RH WIND       PRES   REMARKS
ROCHESTER      CLOUDY    66  65  96 S6        30.06R
RED WING       CLOUDY    70  61  73 CALM      30.02R
STANTON        CLOUDY    67  64  88 E5        30.02F
DODGE CENTER   CLOUDY    66  64  94 CALM      30.05S
WINONA         CLOUDY    68  66  94 CALM      30.03R
AUSTIN         CLOUDY    68  66  94 CALM      30.05S THUNDER
PRESTON        CLOUDY    66  64  91 SW8       30.07R
$$
ABBREVIATIONS USED IN REMARKS
   TC - TEMPERATURES IN CELSIUS
  WCI - WIND CHILL INDEX
   HX - HEAT INDEX
  VSB - VISIBILITY
$$




USA.gov is the U.S. government's official web portal to all federal, state and local government web resources and services.